1487242800.17,31365,13.75,74554.0,9.05,-27.23,-27.67,0,*73
1487242801.41,31366,13.75,74554.8,9.05,-27.51,-27.99,0,*74
1487242802.64,31367,13.75,74554.3,9.09,-27.07,-27.45,0,*7B
1487242803.87,31368,13.75,74554.8,9.05,-26.65,-27.07,0,*7B
1487242805.07,31369,13.75,74554.8,9.09,-26.45,-26.87,0,*7D
1487242806.31,31370,13.75,74552.8,9.09,-26.77,-27.29,0,*71
1487242807.51,31371,13.75,74552.0,9.09,-27.55,-27.89,0,*7B
1487242808.8,31372,13.75,74554.8,9.11,-27.61,-28.09,0,*71
1487242810.06,31373,13.75,74554.0,9.09,-28.21,-28.59,0,*77
1487242811.28,31374,13.75,74556.5,9.09,-27.93,-28.43,0,*7D
1487242812.52,31375,13.75,74554.8,9.11,-27.77,-28.31,0,*7A
1487242813.77,31376,13.75,74558.5,9.11,-27.71,-28.21,0,*7E
1487242815.05,31377,13.75,74556.3,9.11,-28.05,-28.43,0,*77
1487242816.31,31378,13.75,74552.5,9.09,-28.09,-28.59,0,*76
1487242817.56,31379,13.75,74552.8,9.11,-28.31,-28.91,0,*71
1487242818.81,31380,13.75,74554.8,9.09,-28.43,-28.79,0,*7D
1487242820.08,31381,13.75,74552.3,9.11,-28.43,-28.79,0,*75
1487242821.31,31382,13.75,74552.8,9.09,-27.77,-28.25,0,*7E
1487242822.57,31383,13.75,74556.0,9.09,-28.05,-28.47,0,*71
1487242823.81,31384,13.75,74552.8,9.05,-28.09,-28.53,0,*73
1487242825.04,31385,13.75,74554.3,9.09,-27.71,-28.21,0,*7B
1487242826.29,31386,13.75,74556.8,9.05,-27.51,-27.99,0,*7A
1487242827.52,31387,13.75,74558.3,9.09,-27.45,-27.77,0,*72
1487242828.75,31388,13.75,74556.0,9.09,-27.29,-27.61,0,*70
1487242830.02,31389,13.75,74558.5,9.09,-27.61,-28.05,0,*70
1487242831.24,31390,13.75,74554.3,9.09,-27.23,-27.71,0,*72
1487242832.5,31391,13.75,74554.0,9.11,-27.07,-27.39,0,*70
1487242833.72,31392,13.75,74558.3,9.13,-26.87,-27.23,0,*73
1487242834.95,31393,13.75,74556.3,9.13,-26.87,-27.35,0,*75
1487242836.21,31394,13.75,74554.5,9.13,-26.97,-27.39,0,*7F
1487242837.43,31395,13.75,74556.8,9.13,-27.35,-27.71,0,*7B
1487242838.64,31396,13.75,74556.8,9.13,-27.55,-28.15,0,*73
1487242839.87,31397,13.75,74556.3,9.15,-27.07,-27.51,0,*7C
1487242841.12,31398,13.75,74556.5,9.13,-26.71,-27.23,0,*70
1487242842.37,31399,13.75,74556.8,9.13,-26.81,-27.19,0,*77
1487242843.65,31400,13.75,74552.8,9.15,-26.93,-27.35,0,*7B
1487242844.92,31401,13.75,74554.8,9.15,-27.19,-27.61,0,*78
1487242846.17,31402,13.75,74556.3,9.15,-26.61,-26.93,0,*79
1487242847.37,31403,13.75,74556.8,9.17,-26.61,-27.13,0,*73
1487242848.6,31404,13.75,74556.3,9.17,-27.51,-27.99,0,*74
1487242849.81,31405,13.75,74558.8,9.17,-27.29,-27.67,0,*7B
1487242851.03,31406,13.75,74558.5,9.17,-27.35,-27.93,0,*7E
1487242852.27,31407,13.75,74552.8,9.17,-28.63,-29.13,0,*75
1487242853.5,31408,13.75,74554.0,9.19,-28.31,-28.97,0,*7E
1487242854.77,31409,13.75,74556.0,9.19,-28.05,-28.47,0,*75
1487242856.02,31410,13.75,74554.8,9.17,-27.83,-28.47,0,*72
1487242857.24,31411,13.75,74558.8,9.17,-27.83,-28.37,0,*74
1487242858.49,31412,13.75,74554.8,9.15,-27.29,-27.83,0,*75
1487242859.73,31413,13.75,74558.5,9.17,-26.81,-27.29,0,*75
1487242860.96,31414,13.75,74556.0,9.17,-27.19,-27.67,0,*78
1487242862.18,31415,13.75,74558.5,9.19,-27.13,-27.55,0,*7C
1487242863.41,31416,13.75,74556.3,9.19,-27.29,-27.71,0,*70
1487242864.64,31417,13.75,74554.3,9.21,-27.67,-28.09,0,*70
1487242865.92,31418,13.75,74554.5,9.19,-27.45,-27.83,0,*79
1487242867.14,31419,13.75,74556.3,9.21,-27.39,-27.89,0,*72
1487242868.4,31420,13.75,74554.5,9.19,-27.93,-28.43,0,*7A
1487242869.63,31421,13.75,74554.8,9.19,-27.29,-27.71,0,*74
1487242870.84,31422,13.75,74558.5,9.21,-27.19,-27.55,0,*79
1487242872.05,31423,13.75,74558.3,9.21,-27.07,-27.51,0,*73
1487242873.33,31424,13.75,74552.8,9.19,-26.77,-27.23,0,*7C
1487242874.56,31425,13.75,74552.5,9.23,-27.07,-27.55,0,*73
1487242875.81,31426,13.75,74552.8,9.23,-27.03,-27.39,0,*7E
1487242877.08,31427,13.75,74556.0,9.23,-26.71,-27.23,0,*70
1487242878.28,31428,13.75,74552.5,9.25,-26.61,-27.13,0,*7B
1487242879.51,31429,13.75,74554.3,9.25,-26.93,-27.29,0,*7E
1487242880.74,31430,13.75,74552.8,9.25,-26.77,-27.13,0,*75
1487242881.97,31431,13.75,74554.8,9.25,-26.49,-26.97,0,*74
1487242883.25,31432,13.75,74552.8,9.27,-26.33,-26.77,0,*76
1487242884.52,31433,13.75,74554.8,9.31,-26.71,-27.23,0,*76
1487242885.78,31434,13.75,74554.8,9.27,-27.29,-27.61,0,*7C
1487242887.0,31435,13.75,74552.5,9.33,-27.23,-27.71,0,*73
1487242888.25,31436,13.75,74552.3,9.33,-26.81,-27.23,0,*7E
1487242889.47,31437,13.75,74554.3,9.33,-27.19,-27.55,0,*7E
1487242890.69,31438,13.75,74550.8,9.35,-26.39,-26.87,0,*7A
1487242891.97,31439,13.75,74552.0,9.35,-26.33,-26.93,0,*74
1487242893.22,31440,13.75,74558.0,9.35,-26.71,-27.07,0,*70
1487242894.49,31441,13.75,74558.5,9.35,-26.81,-27.23,0,*78
1487242895.71,31442,13.75,74554.5,9.37,-26.87,-27.45,0,*7F
1487242896.9,31443,13.75,74554.5,9.37,-27.13,-27.51,0,*77
1487242898.13,31444,13.75,74556.5,9.41,-27.07,-27.55,0,*70
1487242899.37,31445,13.75,74552.0,9.39,-27.19,-27.67,0,*70
1487242900.62,31446,13.75,74554.8,9.41,-27.07,-27.45,0,*73
1487242901.85,31447,13.75,74552.5,9.41,-27.13,-27.71,0,*70
1487242903.07,31448,13.75,74552.3,9.41,-27.13,-27.71,0,*7F
1487242904.29,31449,13.75,74554.0,9.39,-27.29,-27.77,0,*7E
1487242905.52,31450,13.75,74552.0,9.41,-27.29,-27.77,0,*79
1487242906.79,31451,13.75,74554.5,9.39,-27.45,-27.83,0,*76
1487242908.02,31452,13.75,74552.3,9.39,-27.77,-28.15,0,*74
1487242909.24,31453,13.75,74550.5,9.39,-27.03,-27.51,0,*79
1487242910.49,31454,13.75,74552.3,9.41,-27.23,-27.71,0,*71
1487242911.74,31455,13.75,74554.3,9.41,-27.55,-27.99,0,*77
1487242912.97,31456,13.75,74554.0,9.43,-27.39,-27.77,0,*7C
1487242914.2,31457,13.75,74554.8,9.41,-27.29,-27.93,0,*74
1487242915.43,31458,13.75,74552.5,9.43,-27.55,-28.05,0,*72
1487242916.66,31459,13.75,74552.5,9.43,-28.09,-28.69,0,*7F
1487242917.89,31460,13.75,74550.8,9.43,-27.67,-28.09,0,*74
1487242919.18,31461,13.75,74552.8,9.41,-27.61,-28.09,0,*71
1487242920.43,31462,13.75,74552.3,9.41,-27.83,-28.31,0,*75
1487242921.63,31463,13.75,74552.0,9.43,-27.51,-27.93,0,*7E
1487242922.85,31464,13.75,74552.8,9.43,-27.35,-27.77,0,*71
1487242924.05,31465,13.75,74552.8,9.43,-27.51,-27.93,0,*78
1487242925.28,31466,13.75,74552.8,9.41,-27.13,-27.71,0,*73
1487242926.54,31467,13.75,74554.3,9.43,-26.81,-27.23,0,*7D
1487242927.76,31468,13.75,74554.3,9.43,-27.39,-27.93,0,*7B
1487242929.0,31469,13.75,74556.8,9.43,-27.51,-28.05,0,*74
1487242930.25,31470,13.75,74552.8,9.45,-27.55,-28.05,0,*7E
1487242931.5,31471,13.75,74554.5,9.45,-27.23,-27.77,0,*74
1487242932.75,31472,13.75,74552.3,9.47,-27.45,-27.83,0,*7E
1487242933.99,31473,13.75,74554.0,9.45,-27.35,-27.93,0,*7B
1487242935.25,31474,13.75,74550.3,9.45,-27.55,-28.05,0,*7A
1487242936.5,31475,13.75,74554.5,9.45,-27.71,-28.09,0,*71
1487242937.75,31476,13.75,74554.0,9.45,-27.89,-28.25,0,*7B
1487242939.01,31477,13.75,74554.5,9.45,-27.55,-28.05,0,*79
1487242940.21,31478,13.75,74552.8,9.47,-27.67,-28.15,0,*74
1487242941.47,31479,13.75,74554.8,9.45,-27.67,-28.05,0,*76
1487242942.67,31480,13.75,74554.3,9.47,-27.89,-28.31,0,*75
1487242943.93,31481,13.75,74552.5,9.47,-27.61,-28.05,0,*75
1487242945.15,31482,13.75,74550.8,9.47,-27.35,-27.89,0,*7C
1487242946.38,31483,13.75,74552.0,9.47,-27.45,-27.89,0,*7A
1487242947.58,31484,13.75,74552.3,9.47,-27.51,-27.89,0,*78
1487242948.8,31485,13.75,74550.5,9.47,-27.67,-28.05,0,*77
1487242950.02,31486,13.75,74552.5,9.47,-27.35,-27.71,0,*7F
1487242951.27,31487,13.75,74548.0,9.49,-27.03,-27.45,0,*72
1487242952.51,31488,13.75,74552.0,9.49,-27.03,-27.45,0,*7D
1487242953.73,31489,13.75,74554.8,9.49,-27.13,-27.51,0,*78
1487242955.02,31490,13.75,74550.3,9.53,-26.97,-27.61,0,*75
1487242956.26,31491,13.75,74550.8,9.53,-27.13,-27.45,0,*7F
1487242957.48,31492,13.75,74550.0,9.53,-27.07,-27.55,0,*78
1487242958.73,31493,13.75,74548.0,9.53,-27.55,-27.83,0,*75
1487242960.01,31494,13.75,74548.3,9.53,-27.61,-27.99,0,*7E
1487242961.24,31495,13.75,74552.0,9.53,-27.55,-27.93,0,*72
1487242962.49,31496,13.75,74548.8,9.57,-27.61,-27.93,0,*72
1487242963.72,31497,13.75,74554.8,9.55,-27.61,-27.93,0,*71
1487242964.91,31498,13.75,74550.0,9.55,-27.55,-27.93,0,*79
1487242966.16,31499,13.75,74548.0,9.57,-27.39,-27.77,0,*7A
1487242967.38,31500,13.75,74548.8,9.55,-27.23,-27.77,0,*72
1487242968.62,31501,13.75,74550.5,9.55,-27.35,-27.61,0,*73
1487242969.86,31502,13.75,74552.0,9.55,-27.19,-27.61,0,*7E
1487242971.09,31503,13.75,74550.3,9.57,-27.07,-27.55,0,*75
1487242972.34,31504,13.75,74552.5,9.57,-27.39,-27.71,0,*79
1487242973.54,31505,13.75,74552.8,9.59,-27.13,-27.55,0,*78
1487242974.74,31506,13.75,74550.5,9.59,-27.51,-27.89,0,*7C
1487242975.99,31507,13.75,74552.8,9.57,-27.89,-28.21,0,*7B
1487242977.24,31508,13.75,74554.8,9.57,-27.89,-28.25,0,*70
1487242978.49,31509,13.75,74548.3,9.57,-28.05,-28.53,0,*7B
1487242979.7,31510,13.75,74554.3,9.59,-27.89,-28.31,0,*72
1487242980.93,31511,13.75,74552.5,9.59,-28.21,-28.85,0,*71
1487242982.15,31512,13.75,74550.3,9.59,-28.37,-28.75,0,*7A
1487242983.4,31513,13.75,74552.0,9.59,-28.75,-29.35,0,*78
1487242984.65,31514,13.75,74554.3,9.57,-28.63,-29.23,0,*71
1487242985.86,31515,13.75,74550.8,9.55,-28.75,-29.23,0,*75
1487242987.11,31516,13.75,74550.8,9.55,-28.91,-29.29,0,*76
1487242988.32,31517,13.75,74554.0,9.55,-28.43,-28.97,0,*7C
1487242989.56,31518,13.75,74552.5,9.55,-28.59,-29.29,0,*7C
1487242990.84,31519,13.75,74554.8,9.53,-29.29,-29.89,0,*77
1487242992.09,31520,13.75,74556.0,9.53,-29.29,-29.83,0,*77
1487242993.37,31521,13.75,74552.0,9.49,-28.91,-29.17,0,*72
1487242994.65,31522,13.75,74552.5,9.53,-29.51,-30.05,0,*7C
1487242995.9,31523,13.75,74554.3,9.49,-29.89,-30.45,0,*77
1487242997.13,31524,13.75,74554.8,9.47,-30.51,-31.17,0,*75
1487242998.37,31525,13.75,74552.0,9.45,-29.73,-30.11,0,*79
1487242999.63,31526,13.75,74552.5,9.45,-29.39,-29.95,0,*70
1487243000.89,31527,13.75,74552.0,9.43,-30.17,-30.95,0,*7B
1487243002.14,31528,13.75,74552.0,9.43,-29.89,-30.51,0,*73
1487243003.41,31529,13.75,74548.5,9.41,-31.11,-31.45,0,*7C
1487243004.64,31530,13.75,74552.5,9.37,-30.39,-30.95,0,*72
1487243005.86,31531,13.75,74552.8,9.37,-29.73,-30.11,0,*79
1487243007.08,31532,13.75,74550.8,9.37,-29.83,-30.39,0,*7F
1487243008.33,31533,13.75,74552.5,9.35,-30.61,-31.17,0,*75
1487243009.57,31534,13.75,74552.5,9.35,-30.45,-30.95,0,*7F
1487243010.8,31535,13.75,74554.8,9.35,-30.33,-30.83,0,*78
1487243012.07,31536,13.75,74552.3,9.27,-30.39,-30.89,0,*78
1487243013.32,31537,13.75,74550.5,9.31,-30.55,-31.17,0,*72
1487243014.54,31538,13.75,74552.5,9.27,-30.45,-31.05,0,*78
1487243015.8,31539,13.75,74548.8,9.27,-29.35,-29.67,0,*7B
1487243017.08,31540,13.75,74548.3,9.27,-29.17,-30.01,0,*7D
1487243018.33,31541,13.75,74554.0,9.27,-29.01,-29.57,0,*70
1487243019.56,31542,13.75,74544.5,9.27,-28.37,-28.69,0,*7B
1487243020.8,31543,13.75,74546.8,9.27,-28.15,-28.47,0,*76
1487243022.05,31544,13.75,74544.8,9.27,-28.31,-28.47,0,*77
1487243023.3,31545,13.75,74544.5,9.27,-28.37,-28.79,0,*7D
1487243024.57,31546,13.75,74548.0,9.31,-28.79,-29.17,0,*7A
1487243025.82,31547,13.75,74546.0,9.31,-28.91,-29.45,0,*7A
1487243027.08,31548,13.75,74546.3,9.27,-29.35,-29.79,0,*72
1487243028.36,31549,13.75,74544.0,9.27,-29.35,-29.73,0,*79
1487243029.58,31550,13.75,74550.5,9.27,-28.85,-29.23,0,*7E
1487243030.84,31551,13.75,74546.8,9.27,-29.01,-29.57,0,*71
1487243032.11,31552,13.75,74548.0,9.31,-28.91,-29.29,0,*74
1487243033.39,31553,13.75,74546.5,9.27,-29.01,-29.35,0,*77
1487243034.67,31554,13.75,74544.3,9.31,-29.35,-30.01,0,*7F
1487243035.96,31555,13.75,74542.3,9.27,-29.51,-30.17,0,*7C
1487243037.25,31556,13.75,74546.8,9.27,-29.51,-30.01,0,*78
1487243038.52,31557,13.75,74548.0,9.23,-30.77,-31.39,0,*7B
1487243039.77,31558,13.75,74548.8,9.23,-31.51,-32.01,0,*79
1487243040.99,31559,13.75,74548.8,9.21,-31.17,-31.57,0,*78
1487243042.25,31560,13.75,74546.8,9.19,-30.17,-30.67,0,*7A
1487243043.53,31561,13.75,74544.3,9.19,-30.51,-30.89,0,*79
1487243044.77,31562,13.75,74540.3,9.19,-30.55,-31.05,0,*7B
1487243046.0,31563,13.75,74540.8,9.17,-29.73,-30.23,0,*7D
1487243047.25,31564,13.75,74540.0,9.15,-29.01,-29.23,0,*75
1487243048.47,31565,13.75,74544.3,9.17,-28.63,-28.97,0,*7D
1487243049.72,31566,13.75,74540.5,9.15,-27.99,-28.31,0,*7A
1487243050.97,31567,13.75,74542.0,9.17,-28.47,-28.79,0,*79
1487243052.2,31568,13.75,74540.8,9.17,-28.37,-28.63,0,*7A
1487243053.47,31569,13.75,74544.8,9.19,-28.09,-28.43,0,*7A
1487243054.72,31570,13.75,74542.0,9.19,-28.47,-28.97,0,*71
1487243055.97,31571,13.75,74542.0,9.21,-29.29,-29.73,0,*79
1487243057.2,31572,13.75,74546.3,9.21,-29.51,-30.23,0,*78
1487243058.46,31573,13.75,74544.3,9.19,-30.17,-30.67,0,*78
1487243059.69,31574,13.75,74544.3,9.19,-29.95,-30.27,0,*79
1487243060.95,31575,13.75,74542.8,9.17,-29.39,-29.73,0,*79
1487243062.21,31576,13.75,74544.0,9.15,-29.35,-29.67,0,*71
1487243063.43,31577,13.75,74546.5,9.17,-28.79,-29.23,0,*7B
1487243064.66,31578,13.75,74544.0,9.17,-28.69,-29.01,0,*75
1487243065.9,31579,13.75,74546.3,9.17,-28.47,-28.79,0,*76
1487243067.1,31580,13.75,74540.0,9.17,-28.37,-28.69,0,*76
1487243068.33,31581,13.75,74542.3,9.17,-28.37,-28.79,0,*76
1487243069.54,31582,13.75,74544.5,9.17,-28.53,-28.85,0,*74
1487243070.76,31583,13.75,74542.3,9.17,-28.69,-29.13,0,*72
1487243071.97,31584,13.75,74546.5,9.17,-28.53,-28.85,0,*72
1487243073.22,31585,13.75,74544.8,9.19,-28.31,-28.59,0,*78
1487243074.45,31586,13.75,74542.5,9.21,-28.05,-28.37,0,*7F
1487243075.72,31587,13.75,74542.5,9.19,-28.43,-28.75,0,*71
1487243076.96,31588,13.75,74540.8,9.21,-28.43,-28.75,0,*75
1487243078.18,31589,13.75,74542.5,9.21,-28.69,-29.13,0,*7D
1487243079.4,31590,13.75,74540.3,9.21,-28.59,-29.07,0,*73
1487243080.67,31591,13.75,74540.8,9.19,-28.79,-29.17,0,*7A
1487243081.95,31592,13.75,74542.8,9.19,-28.79,-29.35,0,*79
1487243083.18,31593,13.75,74544.5,9.19,-28.97,-29.45,0,*7F
1487243084.43,31594,13.75,74542.5,9.19,-29.17,-29.45,0,*71
1487243085.66,31595,13.75,74542.5,9.19,-29.45,-29.95,0,*7A
1487243086.9,31596,13.75,74542.3,9.19,-29.45,-29.83,0,*7E
1487243088.13,31597,13.75,74544.3,9.19,-29.67,-30.33,0,*7C
1487243089.37,31598,13.75,74542.0,9.17,-29.57,-30.17,0,*78
1487243090.62,31599,13.75,74544.0,9.15,-29.17,-29.57,0,*73
1487243091.85,31600,13.75,74546.5,9.15,-29.83,-30.23,0,*76
1487243093.1,31601,13.75,74546.5,9.15,-29.83,-30.39,0,*7C
1487243094.35,31602,13.75,74540.5,9.15,-29.73,-30.33,0,*7A
1487243095.63,31603,13.75,74542.5,9.15,-29.51,-30.01,0,*7A
1487243096.86,31604,13.75,74544.8,9.15,-29.67,-30.23,0,*78
1487243098.14,31605,13.75,74544.0,9.11,-30.73,-31.23,0,*71
1487243099.4,31606,13.75,74546.3,9.09,-30.17,-30.55,0,*79
1487243100.62,31607,13.75,74542.8,9.09,-30.11,-30.51,0,*7A
1487243101.89,31608,13.75,74540.8,9.05,-30.01,-30.39,0,*76
1487243103.14,31609,13.75,74546.5,9.09,-30.01,-30.51,0,*75
1487243104.41,31610,13.75,74546.5,9.05,-30.39,-30.77,0,*7E
1487243105.69,31611,13.75,74544.3,9.05,-30.61,-30.89,0,*73
1487243106.93,31612,13.75,74546.0,9.01,-30.61,-31.01,0,*75
1487243108.17,31613,13.75,74544.5,9.01,-30.83,-31.45,0,*78
1487243109.4,31614,13.75,74544.0,9.01,-30.67,-31.29,0,*7F
1487243110.63,31615,13.75,74544.3,8.99,-29.83,-30.17,0,*70
1487243111.82,31616,13.75,74544.3,8.99,-29.61,-29.95,0,*7D
1487243113.02,31617,13.75,74544.5,8.99,-29.67,-29.95,0,*7A
1487243114.24,31618,13.75,74542.5,8.99,-28.97,-29.13,0,*75
1487243115.46,31619,13.75,74544.3,8.99,-29.29,-29.67,0,*73
1487243116.69,31620,13.75,74544.8,8.99,-29.45,-29.89,0,*73
1487243117.89,31621,13.75,74542.3,8.99,-29.61,-29.83,0,*7E
1487243119.14,31622,13.75,74546.5,8.97,-29.39,-29.79,0,*7B
1487243120.38,31623,13.75,74542.3,8.97,-28.97,-29.29,0,*7A
1487243121.58,31624,13.75,74544.3,8.99,-29.23,-29.67,0,*77
1487243122.83,31625,13.75,74544.0,8.97,-29.29,-29.67,0,*72
1487243124.09,31626,13.75,74542.8,8.97,-28.79,-29.13,0,*76
1487243125.33,31627,13.75,74536.8,8.99,-28.63,-28.79,0,*7F
1487243126.58,31628,13.75,74542.5,8.99,-28.59,-28.91,0,*7F
1487243127.78,31629,13.75,74540.0,8.99,-29.07,-29.45,0,*7C
1487243129.05,31630,13.75,74542.0,8.97,-29.13,-29.51,0,*7A
1487243130.3,31631,13.75,74542.3,8.97,-29.07,-29.39,0,*70
1487243131.51,31632,13.75,74544.8,8.99,-28.79,-29.07,0,*78
1487243132.76,31633,13.75,74540.5,8.99,-28.21,-28.59,0,*7E
1487243133.99,31634,13.75,74546.3,8.99,-27.89,-28.21,0,*7B
1487243135.23,31635,13.75,74542.0,8.99,-28.05,-28.47,0,*71
1487243136.47,31636,13.75,74544.3,8.99,-28.59,-28.79,0,*76
1487243137.7,31637,13.75,74544.0,8.99,-27.93,-28.21,0,*73
1487243138.94,31638,13.75,74546.0,8.99,-28.47,-28.91,0,*71
1487243140.17,31639,13.75,74542.8,8.99,-28.37,-28.63,0,*7A
1487243141.41,31640,13.75,74544.3,8.99,-28.43,-28.75,0,*70
1487243142.6,31641,13.75,74544.5,9.03,-28.69,-29.07,0,*7F
1487243143.86,31642,13.75,74546.3,9.01,-28.43,-28.75,0,*72
1487243145.11,31643,13.75,74544.3,9.01,-28.31,-28.59,0,*78
1487243146.36,31644,13.75,74548.0,8.99,-28.09,-28.47,0,*7B
1487243147.59,31645,13.75,74546.0,9.01,-27.89,-28.31,0,*7C
1487243148.87,31646,13.75,74548.3,9.01,-27.99,-28.21,0,*7F
1487243150.12,31647,13.75,74546.0,9.01,-28.15,-28.59,0,*7A
1487243151.39,31648,13.75,74544.3,9.01,-27.99,-28.43,0,*75
1487243152.61,31649,13.75,74544.5,9.03,-27.71,-28.05,0,*72
1487243153.81,31650,13.75,74546.0,9.03,-27.89,-28.31,0,*7A
1487243155.01,31651,13.75,74544.5,9.03,-27.89,-28.37,0,*7D
1487243156.23,31652,13.75,74544.0,9.03,-28.53,-28.91,0,*7A
1487243157.48,31653,13.75,74546.0,9.03,-28.05,-28.43,0,*77
1487243158.72,31654,13.75,74544.8,9.03,-28.05,-28.43,0,*70
1487243159.95,31655,13.75,74544.8,9.05,-27.93,-28.31,0,*72
1487243161.2,31656,13.75,74546.5,9.05,-28.09,-28.31,0,*7D
1487243162.42,31657,13.75,74544.0,9.03,-28.15,-28.43,0,*72
1487243163.66,31658,13.75,74548.5,9.05,-28.63,-28.97,0,*73
1487243164.88,31659,13.75,74546.8,9.03,-28.53,-28.75,0,*7B
1487243166.08,31660,13.75,74548.8,9.03,-28.37,-28.85,0,*7C
1487243167.3,31661,13.75,74550.5,9.03,-29.45,-30.05,0,*78
1487243168.52,31662,13.75,74550.3,9.03,-29.01,-29.23,0,*77
1487243169.78,31663,13.75,74544.0,9.01,-28.53,-28.91,0,*7A
1487243171.03,31664,13.75,74550.5,9.01,-28.53,-28.91,0,*7D
1487243172.25,31665,13.75,74548.5,9.01,-29.07,-29.61,0,*72
1487243173.5,31666,13.75,74548.3,9.01,-29.73,-30.23,0,*7C
1487243174.76,31667,13.75,74552.8,9.01,-29.01,-29.45,0,*70
1487243176.01,31668,13.75,74550.5,9.01,-28.31,-28.59,0,*71
1487243177.23,31669,13.75,74546.3,9.01,-27.55,-27.89,0,*7F
1487243178.48,31670,13.75,74548.0,9.01,-28.43,-28.85,0,*7C
1487243179.71,31671,13.75,74550.0,9.01,-28.31,-28.69,0,*7A
1487243180.91,31672,13.75,74546.5,9.03,-28.53,-28.85,0,*7D
1487243182.13,31673,13.75,74548.5,9.03,-29.39,-29.79,0,*73
1487243183.38,31674,13.75,74544.0,9.01,-28.91,-29.23,0,*7A
1487243184.66,31675,13.75,74546.5,9.01,-28.59,-28.91,0,*77
1487243185.89,31676,13.75,74544.5,9.01,-27.71,-28.15,0,*7D
1487243187.11,31677,13.75,74548.5,9.03,-27.55,-27.83,0,*78
1487243188.31,31678,13.75,74548.5,9.03,-27.67,-27.89,0,*7C
1487243189.51,31679,13.75,74544.5,9.03,-27.71,-28.15,0,*70
1487243190.7,31680,13.75,74548.5,9.03,-28.15,-28.37,0,*7B
1487243191.9,31681,13.75,74546.8,9.03,-28.15,-28.53,0,*78
1487243193.09,31682,13.75,74546.8,9.03,-28.31,-28.53,0,*7D
1487243194.31,31683,13.75,74544.0,9.03,-28.31,-28.59,0,*76
1487243195.56,31684,13.75,74546.8,9.03,-27.83,-28.05,0,*7E
1487243196.81,31685,13.75,74544.0,9.05,-27.29,-27.61,0,*74
1487243198.06,31686,13.75,74550.0,9.09,-27.39,-27.61,0,*7A
1487243199.31,31687,13.75,74546.3,9.05,-27.67,-27.99,0,*7B
1487243200.55,31688,13.75,74546.0,9.05,-28.85,-29.29,0,*72
1487243201.82,31689,13.75,74546.5,9.05,-28.79,-29.01,0,*7A
1487243203.07,31690,13.75,74546.5,9.05,-27.83,-28.31,0,*7A
1487243204.29,31691,13.75,74544.3,9.09,-27.23,-27.55,0,*70
1487243205.53,31692,13.75,74540.3,9.05,-27.13,-27.45,0,*7D
1487243206.77,31693,13.75,74544.3,9.09,-27.29,-27.61,0,*7F
1487243207.99,31694,13.75,74546.8,9.09,-27.23,-27.55,0,*75
1487243209.24,31695,13.75,74546.3,9.11,-27.23,-27.55,0,*7D
1487243210.5,31696,13.75,74544.3,9.11,-27.07,-27.39,0,*72
1487243211.78,31697,13.75,74548.3,9.11,-27.39,-27.61,0,*73
1487243213.04,31698,13.75,74544.3,9.13,-27.39,-27.61,0,*7E
1487243214.29,31699,13.75,74546.0,9.13,-27.23,-27.39,0,*79
1487243215.51,31700,13.75,74546.5,9.13,-27.35,-27.51,0,*71
1487243216.74,31701,13.75,74542.0,9.13,-27.39,-27.55,0,*78
1487243217.97,31702,13.75,74544.5,9.13,-27.39,-27.67,0,*7A
1487243219.17,31703,13.75,74546.0,9.13,-27.51,-27.67,0,*75
1487243220.38,31704,13.75,74544.5,9.17,-27.29,-27.51,0,*7C
1487243221.61,31705,13.75,74550.0,9.17,-27.51,-27.83,0,*7D
1487243222.83,31706,13.75,74548.3,9.15,-28.15,-28.53,0,*71
1487243224.1,31707,13.75,74544.5,9.15,-29.13,-29.51,0,*74
1487243225.33,31708,13.75,74546.0,9.15,-28.31,-28.53,0,*79
1487243226.57,31709,13.75,74544.3,9.15,-28.63,-28.97,0,*77
1487243227.84,31710,13.75,74544.8,9.15,-28.79,-29.13,0,*79
1487243229.08,31711,13.75,74540.3,9.15,-28.63,-28.97,0,*7E
1487243230.29,31712,13.75,74544.0,9.13,-29.61,-30.11,0,*7F
1487243231.54,31713,13.75,74544.5,9.11,-29.13,-29.67,0,*70
1487243232.81,31714,13.75,74546.0,9.11,-29.35,-29.83,0,*79
1487243234.08,31715,13.75,74546.3,9.11,-28.43,-28.75,0,*70
1487243235.32,31716,13.75,74546.3,9.09,-28.79,-29.13,0,*72
1487243236.54,31717,13.75,74546.3,9.09,-28.75,-29.07,0,*7A
1487243237.78,31718,13.75,74546.0,9.09,-29.51,-29.95,0,*79
1487243239.05,31719,13.75,74546.5,9.05,-30.39,-30.89,0,*77
1487243240.31,31720,13.75,74546.3,9.05,-30.05,-30.55,0,*73
1487243241.53,31721,13.75,74542.3,9.03,-30.05,-30.45,0,*75
1487243242.77,31722,13.75,74544.0,9.01,-30.27,-30.67,0,*74
1487243244.0,31723,13.75,74540.8,9.01,-30.27,-30.67,0,*75
1487243245.2,31724,13.75,74544.8,8.99,-29.67,-30.27,0,*7A
1487243246.46,31725,13.75,74544.5,8.97,-29.39,-29.67,0,*72
1487243247.66,31726,13.75,74544.0,8.99,-29.07,-29.45,0,*72
1487243248.92,31727,13.75,74542.3,8.97,-28.47,-28.79,0,*76
1487243250.2,31728,13.75,74542.8,8.97,-28.25,-28.59,0,*7F
1487243251.42,31729,13.75,74542.3,8.99,-27.93,-28.25,0,*79
1487243252.69,31730,13.75,74542.0,8.97,-28.09,-28.43,0,*73
1487243253.96,31731,13.75,74542.8,8.97,-28.47,-28.59,0,*73
1487243255.23,31732,13.75,74540.8,9.01,-28.43,-28.75,0,*74
1487243256.51,31733,13.75,74546.8,9.01,-28.21,-28.59,0,*7F
1487243257.78,31734,13.75,74544.8,8.97,-28.59,-28.79,0,*7B
1487243259.03,31735,13.75,74542.8,9.01,-29.07,-29.35,0,*77
1487243260.29,31736,13.75,74546.0,9.01,-29.89,-30.45,0,*7D
1487243261.53,31737,13.75,74544.3,8.97,-29.29,-29.79,0,*7F
1487243262.79,31738,13.75,74544.3,8.97,-29.23,-29.51,0,*70
1487243263.98,31739,13.75,74544.3,8.95,-28.69,-28.97,0,*77
1487243265.23,31740,13.75,74546.8,8.95,-28.25,-28.43,0,*78
1487243266.49,31741,13.75,74542.8,8.97,-28.43,-28.75,0,*7E
1487243267.74,31742,13.75,74542.8,8.99,-28.05,-28.25,0,*74
1487243268.97,31743,13.75,74540.8,8.99,-27.89,-28.05,0,*7C
1487243270.19,31744,13.75,74540.8,8.97,-27.77,-27.89,0,*7F
1487243271.44,31745,13.75,74538.0,8.99,-28.25,-28.59,0,*7A
1487243272.69,31746,13.75,74538.0,8.99,-28.25,-28.59,0,*79
1487243273.93,31747,13.75,74536.5,8.99,-28.59,-28.79,0,*71
1487243275.15,31748,13.75,74536.3,8.99,-29.07,-29.39,0,*71
1487243276.36,31749,13.75,74536.0,8.99,-28.97,-29.29,0,*79
1487243277.56,31750,13.75,74538.0,8.99,-29.79,-30.11,0,*73
1487243278.78,31751,13.75,74540.0,8.97,-29.67,-29.95,0,*77
1487243280.03,31752,13.75,74540.3,8.97,-29.39,-29.79,0,*7D
1487243281.25,31753,13.75,74540.8,8.93,-29.79,-30.11,0,*7A
1487243282.52,31754,13.75,74542.8,8.93,-30.05,-30.55,0,*7E
1487243283.77,31755,13.75,74544.8,8.93,-30.11,-30.55,0,*7A
1487243285.0,31756,13.75,74542.5,8.93,-29.57,-29.95,0,*77
1487243286.24,31757,13.75,74544.3,8.93,-28.69,-29.01,0,*77
1487243287.45,31758,13.75,74542.0,8.91,-28.53,-28.85,0,*7E
1487243288.65,31759,13.75,74538.3,8.95,-28.53,-28.85,0,*7B
1487243289.87,31760,13.75,74542.5,8.91,-28.53,-28.75,0,*7A
1487243291.1,31761,13.75,74544.5,8.91,-28.69,-28.91,0,*78
1487243292.32,31762,13.75,74540.8,8.91,-28.85,-29.17,0,*76
1487243293.52,31763,13.75,74542.3,8.91,-28.37,-28.69,0,*76
1487243294.78,31764,13.75,74542.3,8.89,-28.43,-28.75,0,*76
1487243296.01,31765,13.75,74536.5,8.91,-28.31,-28.59,0,*75
1487243297.23,31766,13.75,74536.8,8.93,-28.15,-28.53,0,*78
1487243298.43,31767,13.75,74542.3,8.91,-28.15,-28.53,0,*7B
1487243299.7,31768,13.75,74536.0,8.89,-28.63,-28.91,0,*72
1487243300.92,31769,13.75,74540.5,8.91,-28.15,-28.47,0,*70
1487243302.17,31770,13.75,74538.8,8.91,-28.05,-28.47,0,*79
1487243303.4,31771,13.75,74540.5,8.91,-28.31,-28.59,0,*70